THY6QT EVRA-LTFM

Flight info

Callsign THY6QT
Flight time 2h 36m
Altitude 38000
Route BERIL DCT UBORU DCT BOKSU DCT TOXAR DCT ROBTU/N0431F390 DCT KENIN DCT LARMU DCT RUTUV DCT RONBU DCT BUVAK DCT RIXEN
Aircraft A20N/M-SDE2E3FGHIRWXY/LB1

Departure

Time 2026-05-05 14:08
Airport Riga International Airport (EVRA)

Arrival

Time 2026-05-05 16:45
Airport İstanbul Airport (LTFM)
Time Latitude Longitude Altitude Speed Heading
2026-05-05 13:59 56.92614 23.97777 49 ft 0 kts 325°
2026-05-05 14:05 56.92621 23.97768 49 ft 5 kts 327°
2026-05-05 14:05 56.92687 23.97740 49 ft 12 kts
2026-05-05 14:05 56.92787 23.97756 49 ft 16 kts
2026-05-05 14:05 56.92898 23.97698 49 ft 18 kts 321°
2026-05-05 14:06 56.93013 23.97619 49 ft 19 kts
2026-05-05 14:06 56.93150 23.97633 49 ft 21 kts
2026-05-05 14:06 56.93302 23.97662 48 ft 23 kts
2026-05-05 14:06 56.93441 23.97634 48 ft 14 kts 319°
2026-05-05 14:07 56.93481 23.97495 49 ft 15 kts 291°
2026-05-05 14:07 56.93464 23.97317 48 ft 17 kts 231°
2026-05-05 14:07 56.93388 23.97279 48 ft 12 kts 180°
2026-05-05 14:07 56.93280 23.97265 48 ft 20 kts 186°
2026-05-05 14:08 56.93003 23.97215 49 ft 86 kts 185°
2026-05-05 14:08 56.92015 23.97056 131 ft 187 kts 185°
2026-05-05 14:08 56.90668 23.97234 1320 ft 205 kts 162°
2026-05-05 14:08 56.89463 23.98962 2244 ft 224 kts 125°
2026-05-05 14:09 56.89127 24.01495 2804 ft 202 kts 83°
2026-05-05 14:09 56.89747 24.03679 2984 ft 196 kts 37°
2026-05-05 14:09 56.90827 24.05236 3133 ft 208 kts 44°
2026-05-05 14:09 56.91369 24.07830 3374 ft 234 kts 89°
2026-05-05 14:10 56.90890 24.10740 3700 ft 254 kts 128°
2026-05-05 14:10 56.89487 24.12705 4256 ft 258 kts 164°
2026-05-05 14:10 56.87760 24.12838 5048 ft 252 kts 198°
2026-05-05 14:10 56.86134 24.11644 5872 ft 253 kts 209°
2026-05-05 14:11 56.84566 24.10164 6567 ft 254 kts 210°
2026-05-05 14:11 56.82965 24.08757 6900 ft 256 kts 207°
2026-05-05 14:11 56.81286 24.07548 7460 ft 261 kts 203°
2026-05-05 14:11 56.79675 24.06614 8247 ft 261 kts 201°
2026-05-05 14:12 56.77916 24.05752 9090 ft 263 kts 199°
2026-05-05 14:12 56.76129 24.04970 9903 ft 265 kts 199°
2026-05-05 14:12 56.74304 24.04204 10376 ft 278 kts 199°
2026-05-05 14:12 56.72358 24.03383 10639 ft 296 kts 198°
2026-05-05 14:13 56.70289 24.02504 10893 ft 313 kts 198°
2026-05-05 14:13 56.68124 24.01582 11246 ft 324 kts 198°
2026-05-05 14:13 56.65911 24.00646 11769 ft 328 kts 198°
2026-05-05 14:13 56.63673 23.99702 12354 ft 332 kts 198°
2026-05-05 14:14 56.61415 23.98750 12916 ft 335 kts 198°
2026-05-05 14:14 56.59135 23.97784 13482 ft 338 kts 198°
2026-05-05 14:14 56.56844 23.96810 13996 ft 340 kts 198°
2026-05-05 14:14 56.54552 23.95835 14493 ft 343 kts 198°
2026-05-05 14:15 56.52219 23.94841 14973 ft 346 kts 198°
2026-05-05 14:15 56.49863 23.93838 15470 ft 349 kts 198°
2026-05-05 14:15 56.47494 23.92831 15963 ft 352 kts 198°
2026-05-05 14:15 56.45102 23.91816 16462 ft 354 kts 199°
2026-05-05 14:16 56.42685 23.90792 16961 ft 357 kts 199°
2026-05-05 14:16 56.40256 23.89764 17440 ft 360 kts 199°
2026-05-05 14:16 56.37806 23.88729 17938 ft 363 kts 199°
2026-05-05 14:16 56.35342 23.87690 18385 ft 366 kts 199°
2026-05-05 14:17 56.32852 23.86641 18830 ft 368 kts 199°
2026-05-05 14:17 56.30353 23.85591 19284 ft 370 kts 199°
2026-05-05 14:17 56.27837 23.84535 19755 ft 371 kts 199°
2026-05-05 14:17 56.25319 23.83479 20192 ft 374 kts 199°
2026-05-05 14:18 56.22777 23.82413 20623 ft 376 kts 199°
2026-05-05 14:18 56.20220 23.81343 21053 ft 378 kts 199°
2026-05-05 14:18 56.17647 23.80267 21477 ft 380 kts 199°
2026-05-05 14:18 56.15066 23.79191 21902 ft 382 kts 199°
2026-05-05 14:19 56.12467 23.78109 22321 ft 384 kts 199°
2026-05-05 14:19 56.09857 23.77022 22735 ft 386 kts 199°
2026-05-05 14:19 56.07229 23.75930 23147 ft 389 kts 199°
2026-05-05 14:19 56.04624 23.74847 23541 ft 391 kts 198°
2026-05-05 14:20 56.01964 23.73744 23891 ft 393 kts 198°
2026-05-05 14:20 55.99297 23.72643 24252 ft 394 kts 199°
2026-05-05 14:20 55.96624 23.71540 24641 ft 395 kts 199°
2026-05-05 14:20 55.93930 23.70429 25020 ft 397 kts 199°
2026-05-05 14:21 55.91235 23.69318 25407 ft 398 kts 199°
2026-05-05 14:21 55.88532 23.68206 25808 ft 400 kts 199°
2026-05-05 14:21 55.85841 23.67100 26199 ft 401 kts 199°
2026-05-05 14:21 55.83087 23.65969 26626 ft 403 kts 199°
2026-05-05 14:22 55.80343 23.64844 27057 ft 405 kts 199°
2026-05-05 14:22 55.77586 23.63716 27495 ft 407 kts 199°
2026-05-05 14:22 55.74815 23.62583 27946 ft 410 kts 199°
2026-05-05 14:22 55.72027 23.61446 28408 ft 413 kts 199°
2026-05-05 14:23 55.70176 23.60692 28715 ft 414 kts 199°
2026-05-05 14:23 55.67357 23.59544 29188 ft 417 kts 199°
2026-05-05 14:23 55.64511 23.58386 29666 ft 420 kts 199°
2026-05-05 14:23 55.60709 23.56841 30247 ft 424 kts 199°
2026-05-05 14:24 55.58763 23.56052 30513 ft 427 kts 198°
2026-05-05 14:24 55.55861 23.54878 30934 ft 430 kts 198°
2026-05-05 14:24 55.52975 23.53713 31358 ft 432 kts 198°
2026-05-05 14:24 55.50028 23.52526 31774 ft 435 kts 198°
2026-05-05 14:25 55.47088 23.51344 32175 ft 438 kts 198°
2026-05-05 14:25 55.44083 23.50137 32582 ft 441 kts 198°
2026-05-05 14:25 55.41084 23.48933 32994 ft 443 kts 198°
2026-05-05 14:25 55.38073 23.47727 33390 ft 445 kts 198°
2026-05-05 14:26 55.35047 23.46517 33769 ft 448 kts 198°
2026-05-05 14:26 55.31998 23.45299 34107 ft 450 kts 198°
2026-05-05 14:26 55.28941 23.44081 34521 ft 450 kts 198°
2026-05-05 14:26 55.25892 23.42869 34894 ft 450 kts 198°
2026-05-05 14:27 55.22832 23.41654 35274 ft 452 kts 198°
2026-05-05 14:27 55.19757 23.40433 35655 ft 453 kts 198°
2026-05-05 14:27 55.16677 23.39213 36024 ft 454 kts 198°
2026-05-05 14:27 55.13592 23.37991 36405 ft 455 kts 198°
2026-05-05 14:28 55.10501 23.36770 36765 ft 456 kts 197°
2026-05-05 14:28 55.07410 23.35551 37158 ft 457 kts 197°
2026-05-05 14:28 55.04307 23.34329 37543 ft 458 kts 197°
2026-05-05 14:28 55.01197 23.33106 37912 ft 458 kts 197°
2026-05-05 14:29 54.98083 23.31884 38294 ft 459 kts 197°
2026-05-05 14:29 54.94966 23.30663 38634 ft 460 kts 197°
2026-05-05 14:29 54.91835 23.29438 38924 ft 461 kts 197°
2026-05-05 14:29 54.88701 23.28213 39193 ft 462 kts 197°
2026-05-05 14:30 54.85569 23.26991 39458 ft 462 kts 197°
2026-05-05 14:30 54.82431 23.25769 39721 ft 463 kts 197°
2026-05-05 14:30 54.79279 23.24544 39979 ft 464 kts 196°
2026-05-05 14:30 54.76164 23.23335 40233 ft 465 kts 196°
2026-05-05 14:31 54.72963 23.22094 40488 ft 465 kts 196°
2026-05-05 14:31 54.69846 23.20888 40704 ft 466 kts 196°
2026-05-05 14:31 54.66667 23.19660 40856 ft 468 kts 196°
2026-05-05 14:31 54.63487 23.18434 40869 ft 467 kts 196°
2026-05-05 14:32 54.57140 23.15993 40864 ft 468 kts 196°
2026-05-05 14:32 54.50784 23.13555 40875 ft 468 kts 196°
2026-05-05 14:33 54.44423 23.11122 40868 ft 468 kts 196°
2026-05-05 14:33 54.38055 23.08695 40868 ft 469 kts 196°
2026-05-05 14:34 54.31681 23.06273 40874 ft 469 kts 196°
2026-05-05 14:34 54.25290 23.04012 40869 ft 470 kts 194°
2026-05-05 14:35 54.18887 23.02045 40865 ft 471 kts 193°
2026-05-05 14:35 54.12435 23.00070 40861 ft 471 kts 194°
2026-05-05 14:36 54.05978 22.98050 40866 ft 471 kts 194°
2026-05-05 14:36 53.99528 22.96015 40863 ft 471 kts 194°
2026-05-05 14:37 53.93100 22.93989 40863 ft 472 kts 194°
2026-05-05 14:37 53.86787 22.92009 40857 ft 472 kts 194°
2026-05-05 14:38 53.80229 22.89958 40862 ft 472 kts 194°
2026-05-05 14:38 53.73772 22.87946 40853 ft 472 kts 194°
2026-05-05 14:39 53.67301 22.85937 40851 ft 473 kts 194°
2026-05-05 14:39 53.60822 22.83931 40850 ft 473 kts 193°
2026-05-05 14:40 53.54346 22.81932 40846 ft 473 kts 193°
2026-05-05 14:40 53.47872 22.79940 40841 ft 473 kts 193°
2026-05-05 14:41 53.41386 22.77950 40845 ft 474 kts 193°
2026-05-05 14:41 53.34938 22.75978 40830 ft 474 kts 193°
2026-05-05 14:42 53.28446 22.73999 40839 ft 474 kts 193°
2026-05-05 14:42 53.21951 22.72025 40831 ft 474 kts 193°
2026-05-05 14:43 53.15459 22.70058 40825 ft 474 kts 193°
2026-05-05 14:43 53.08962 22.68095 40817 ft 475 kts 193°
2026-05-05 14:44 53.02462 22.66139 40819 ft 475 kts 193°
2026-05-05 14:44 52.95952 22.64185 40815 ft 475 kts 193°
2026-05-05 14:45 52.89430 22.62233 40817 ft 475 kts 193°
2026-05-05 14:45 52.82967 22.60305 40811 ft 476 kts 193°
2026-05-05 14:46 52.76435 22.58362 40813 ft 476 kts 193°
2026-05-05 14:46 52.69905 22.56425 40813 ft 476 kts 193°
2026-05-05 14:47 52.63377 22.54494 40812 ft 476 kts 193°
2026-05-05 14:47 52.56833 22.52718 40814 ft 478 kts 191°
2026-05-05 14:48 52.50235 22.51403 40812 ft 478 kts 189°
2026-05-05 14:48 52.43620 22.50131 40818 ft 478 kts 189°
2026-05-05 14:49 52.37014 22.48793 40820 ft 478 kts 190°
2026-05-05 14:49 52.30398 22.47416 40819 ft 478 kts 190°
2026-05-05 14:50 52.23796 22.46040 40820 ft 478 kts 190°
2026-05-05 14:50 52.17190 22.44669 40825 ft 478 kts 190°
2026-05-05 14:51 52.10629 22.43314 40826 ft 478 kts 190°
2026-05-05 14:51 52.04013 22.41951 40826 ft 478 kts 190°
2026-05-05 14:52 51.97410 22.40596 40825 ft 478 kts 189°
2026-05-05 14:52 51.90794 22.39242 40829 ft 479 kts 189°
2026-05-05 14:53 51.84198 22.37896 40829 ft 479 kts 189°
2026-05-05 14:53 51.77580 22.36549 40828 ft 479 kts 189°
2026-05-05 14:54 51.70971 22.35209 40827 ft 479 kts 189°
2026-05-05 14:54 51.64355 22.33871 40827 ft 479 kts 189°
2026-05-05 14:55 51.57738 22.32537 40831 ft 479 kts 189°
2026-05-05 14:55 51.51148 22.31211 40826 ft 479 kts 189°
2026-05-05 14:56 51.44527 22.29882 40830 ft 479 kts 189°
2026-05-05 14:56 51.37907 22.28560 40836 ft 480 kts 189°
2026-05-05 14:57 51.31286 22.27240 40837 ft 480 kts 189°
2026-05-05 14:57 51.24658 22.25923 40837 ft 480 kts 189°
2026-05-05 14:58 51.18032 22.24610 40833 ft 480 kts 189°
2026-05-05 14:58 51.11408 22.23301 40832 ft 480 kts 189°
2026-05-05 14:59 51.04781 22.21996 40829 ft 480 kts 189°
2026-05-05 14:59 50.98149 22.20693 40831 ft 480 kts 189°
2026-05-05 15:00 50.92635 22.19613 40831 ft 480 kts 189°
2026-05-05 15:00 50.84882 22.18097 40831 ft 480 kts 189°
2026-05-05 15:01 50.78247 22.16805 40830 ft 480 kts 189°
2026-05-05 15:01 50.71613 22.15517 40836 ft 481 kts 189°
2026-05-05 15:02 50.64968 22.14230 40837 ft 481 kts 189°
2026-05-05 15:02 50.58365 22.12955 40842 ft 481 kts 189°
2026-05-05 15:03 50.51729 22.11677 40845 ft 481 kts 189°
2026-05-05 15:03 50.45075 22.10398 40847 ft 481 kts 189°
2026-05-05 15:04 50.38430 22.09126 40857 ft 481 kts 189°
2026-05-05 15:04 50.31784 22.07856 40864 ft 481 kts 189°
2026-05-05 15:05 50.21842 22.05967 40880 ft 481 kts 189°
2026-05-05 15:06 50.15198 22.04708 40882 ft 482 kts 189°
2026-05-05 15:06 50.08517 22.03446 40883 ft 482 kts 189°
2026-05-05 15:07 50.01861 22.02190 40882 ft 482 kts 189°
2026-05-05 15:07 49.95197 22.00936 40859 ft 482 kts 189°
2026-05-05 15:08 49.88526 21.99684 40864 ft 482 kts 189°
2026-05-05 15:08 49.81849 21.98436 40871 ft 482 kts 189°
2026-05-05 15:09 49.75226 21.97200 40881 ft 483 kts 189°
2026-05-05 15:09 49.68546 21.95956 40887 ft 483 kts 189°
2026-05-05 15:10 49.61870 21.94721 40890 ft 483 kts 189°
2026-05-05 15:10 49.56308 21.93695 40895 ft 483 kts 189°
2026-05-05 15:11 49.49620 21.92463 40889 ft 484 kts 189°
2026-05-05 15:11 49.42934 21.91227 40907 ft 484 kts 189°
2026-05-05 15:12 49.36247 21.89997 40906 ft 484 kts 189°
2026-05-05 15:12 49.29609 21.88782 40908 ft 484 kts 189°
2026-05-05 15:13 49.21787 21.87355 40893 ft 484 kts 189°
2026-05-05 15:13 49.16234 21.86348 40892 ft 484 kts 189°
2026-05-05 15:14 49.09541 21.85134 40891 ft 484 kts 189°
2026-05-05 15:14 49.02306 21.83824 40915 ft 484 kts 189°
2026-05-05 15:15 48.95608 21.82613 40901 ft 484 kts 189°
2026-05-05 15:15 48.88887 21.81877 40903 ft 487 kts 179°
2026-05-05 15:16 48.82134 21.82935 40898 ft 489 kts 174°
2026-05-05 15:16 48.75387 21.84389 40899 ft 489 kts 173°
2026-05-05 15:17 48.68643 21.85879 40898 ft 489 kts 173°
2026-05-05 15:17 48.61897 21.87330 40896 ft 489 kts 174°
2026-05-05 15:18 48.55156 21.88750 40908 ft 489 kts 174°
2026-05-05 15:18 48.48450 21.90153 40895 ft 489 kts 174°
2026-05-05 15:19 48.41699 21.91580 40906 ft 490 kts 172°
2026-05-05 15:19 48.35172 21.94556 40911 ft 493 kts 155°
2026-05-05 15:20 48.29377 22.00086 40913 ft 495 kts 145°
2026-05-05 15:20 48.23884 22.06227 40909 ft 496 kts 143°
2026-05-05 15:21 48.18341 22.12500 40917 ft 496 kts 144°
2026-05-05 15:21 48.12848 22.18627 40914 ft 496 kts 144°
2026-05-05 15:22 48.07302 22.24751 40912 ft 496 kts 144°
2026-05-05 15:22 48.01738 22.30865 40921 ft 496 kts 144°
2026-05-05 15:23 47.96177 22.36963 40922 ft 496 kts 144°
2026-05-05 15:23 47.90610 22.43052 40923 ft 496 kts 144°
2026-05-05 15:24 47.85187 22.49396 40922 ft 496 kts 141°
2026-05-05 15:24 47.79880 22.55965 40928 ft 496 kts 141°
2026-05-05 15:25 47.74562 22.62544 40924 ft 496 kts 141°
2026-05-05 15:25 47.69290 22.69049 40931 ft 495 kts 141°
2026-05-05 15:26 47.63987 22.75576 40929 ft 495 kts 141°
2026-05-05 15:26 47.58678 22.82092 40933 ft 495 kts 141°
2026-05-05 15:27 47.53367 22.88593 40932 ft 495 kts 141°
2026-05-05 15:28 47.43087 23.01128 40929 ft 495 kts 141°
2026-05-05 15:28 47.37798 23.07551 40936 ft 495 kts 141°
2026-05-05 15:29 47.32475 23.13998 40930 ft 495 kts 141°
2026-05-05 15:29 47.27143 23.20438 40926 ft 495 kts 141°
2026-05-05 15:30 47.21809 23.26866 40934 ft 495 kts 141°
2026-05-05 15:30 47.16468 23.33282 40932 ft 496 kts 141°
2026-05-05 15:31 47.11122 23.39688 40935 ft 496 kts 141°
2026-05-05 15:31 47.05768 23.46086 40941 ft 496 kts 141°
2026-05-05 15:32 47.00192 23.52731 40943 ft 496 kts 141°
2026-05-05 15:32 46.94821 23.59115 40949 ft 496 kts 141°
2026-05-05 15:33 46.89455 23.65477 40959 ft 497 kts 141°
2026-05-05 15:33 46.84072 23.71840 40957 ft 497 kts 141°
2026-05-05 15:34 46.78692 23.78184 40961 ft 497 kts 141°
2026-05-05 15:34 46.73338 23.84480 40957 ft 497 kts 141°
2026-05-05 15:35 46.67952 23.90797 40950 ft 497 kts 141°
2026-05-05 15:35 46.62560 23.97104 40945 ft 497 kts 141°
2026-05-05 15:36 46.57166 24.03398 40945 ft 497 kts 141°
2026-05-05 15:36 46.51769 24.09678 40952 ft 497 kts 141°
2026-05-05 15:37 46.46364 24.15952 40947 ft 497 kts 141°
2026-05-05 15:37 46.40951 24.22217 40956 ft 497 kts 141°
2026-05-05 15:38 46.35537 24.28468 40957 ft 497 kts 141°
2026-05-05 15:38 46.30158 24.34663 40956 ft 497 kts 141°
2026-05-05 15:39 46.24744 24.40881 40946 ft 497 kts 141°
2026-05-05 15:39 46.19319 24.47095 40951 ft 498 kts 141°
2026-05-05 15:40 46.13894 24.53293 40948 ft 498 kts 141°
2026-05-05 15:40 46.10000 24.57733 40945 ft 498 kts 141°
2026-05-05 15:41 46.04568 24.63912 40954 ft 498 kts 141°
2026-05-05 15:41 45.99117 24.70097 40957 ft 498 kts 141°
2026-05-05 15:42 45.93666 24.76266 40963 ft 498 kts 141°
2026-05-05 15:42 45.88245 24.82385 40969 ft 499 kts 141°
2026-05-05 15:43 45.82781 24.88537 40972 ft 499 kts 142°
2026-05-05 15:43 45.77310 24.94681 40980 ft 499 kts 142°
2026-05-05 15:44 45.71834 25.00815 40981 ft 499 kts 142°
2026-05-05 15:44 45.66386 25.06902 40989 ft 500 kts 142°
2026-05-05 15:45 45.60897 25.13019 40983 ft 500 kts 142°
2026-05-05 15:45 45.55405 25.19124 40996 ft 501 kts 142°
2026-05-05 15:46 45.49907 25.25219 41002 ft 501 kts 141°
2026-05-05 15:46 45.44390 25.31321 40997 ft 501 kts 142°
2026-05-05 15:47 45.38870 25.37411 40993 ft 502 kts 142°
2026-05-05 15:47 45.33349 25.43486 41016 ft 502 kts 142°
2026-05-05 15:48 45.27827 25.49546 41003 ft 501 kts 142°
2026-05-05 15:48 45.22292 25.55606 41010 ft 501 kts 142°
2026-05-05 15:49 45.16803 25.61601 41005 ft 501 kts 142°
2026-05-05 15:49 45.11275 25.67622 41020 ft 501 kts 142°
2026-05-05 15:50 45.05744 25.73633 41019 ft 501 kts 142°
2026-05-05 15:50 45.00223 25.79616 40998 ft 500 kts 142°
2026-05-05 15:51 44.94699 25.85589 40994 ft 500 kts 142°
2026-05-05 15:51 44.89162 25.91560 40990 ft 500 kts 142°
2026-05-05 15:52 44.83622 25.97520 40998 ft 500 kts 142°
2026-05-05 15:52 44.78109 26.03437 40996 ft 500 kts 142°
2026-05-05 15:53 44.72571 26.09365 40993 ft 500 kts 142°
2026-05-05 15:53 44.67022 26.15291 40988 ft 500 kts 142°
2026-05-05 15:54 44.61479 26.21196 40993 ft 500 kts 142°
2026-05-05 15:54 44.55927 26.27095 40988 ft 500 kts 142°
2026-05-05 15:55 44.50371 26.32984 40992 ft 501 kts 142°
2026-05-05 15:55 44.44839 26.38834 40995 ft 501 kts 142°
2026-05-05 15:56 44.39274 26.44704 40997 ft 501 kts 142°
2026-05-05 15:56 44.33709 26.50560 41008 ft 501 kts 142°
2026-05-05 15:57 44.28143 26.56402 41008 ft 501 kts 142°
2026-05-05 15:57 44.22566 26.62242 41011 ft 501 kts 142°
2026-05-05 15:58 44.16985 26.68073 41006 ft 501 kts 142°
2026-05-05 15:58 44.11400 26.73893 41004 ft 501 kts 142°
2026-05-05 15:59 44.05807 26.79708 41004 ft 502 kts 142°
2026-05-05 15:59 44.00207 26.85515 41006 ft 502 kts 142°
2026-05-05 16:00 43.94609 26.91307 41009 ft 502 kts 142°
2026-05-05 16:00 43.89024 26.97071 41007 ft 502 kts 143°
2026-05-05 16:01 43.83412 27.02850 41008 ft 502 kts 143°
2026-05-05 16:01 43.77800 27.08613 41009 ft 502 kts 143°
2026-05-05 16:02 43.72176 27.14377 41010 ft 502 kts 143°
2026-05-05 16:02 43.66588 27.20089 41011 ft 503 kts 143°
2026-05-05 16:03 43.60955 27.25834 41016 ft 503 kts 143°
2026-05-05 16:03 43.55319 27.31568 41018 ft 503 kts 143°
2026-05-05 16:04 43.49681 27.37290 41019 ft 503 kts 143°
2026-05-05 16:04 43.44043 27.43001 41025 ft 503 kts 143°
2026-05-05 16:05 43.38437 27.48663 41031 ft 503 kts 143°
2026-05-05 16:05 43.32796 27.54348 41033 ft 503 kts 143°
2026-05-05 16:06 43.27152 27.60023 41037 ft 503 kts 143°
2026-05-05 16:06 43.21505 27.65688 41038 ft 503 kts 143°
2026-05-05 16:07 43.15858 27.71340 41038 ft 502 kts 143°
2026-05-05 16:07 43.10206 27.76982 41042 ft 503 kts 143°
2026-05-05 16:08 43.04715 27.82452 41043 ft 503 kts 143°
2026-05-05 16:08 42.99049 27.88083 41051 ft 503 kts 143°
2026-05-05 16:08 42.96263 27.90846 40881 ft 501 kts 143°
2026-05-05 16:09 42.93441 27.93643 40634 ft 502 kts 143°
2026-05-05 16:09 42.90612 27.96443 40405 ft 503 kts 143°
2026-05-05 16:09 42.87778 27.99244 40160 ft 504 kts 143°
2026-05-05 16:09 42.84934 28.02053 40023 ft 504 kts 143°
2026-05-05 16:10 42.82095 28.04853 39895 ft 504 kts 143°
2026-05-05 16:10 42.79256 28.07651 39632 ft 504 kts 143°
2026-05-05 16:10 42.76419 28.10442 39367 ft 504 kts 143°
2026-05-05 16:10 42.73573 28.13239 39152 ft 504 kts 143°
2026-05-05 16:11 42.70734 28.16027 38919 ft 504 kts 143°
2026-05-05 16:11 42.62216 28.24370 37335 ft 501 kts 143°
2026-05-05 16:12 42.59391 28.27130 36526 ft 501 kts 143°
2026-05-05 16:12 42.53773 28.32611 34854 ft 501 kts 143°
2026-05-05 16:13 42.45273 28.40882 31830 ft 502 kts 142°
2026-05-05 16:13 42.42436 28.43637 30787 ft 502 kts 142°
2026-05-05 16:13 42.39599 28.46387 29650 ft 499 kts 142°
2026-05-05 16:14 42.34218 28.51589 27805 ft 463 kts 142°
2026-05-05 16:14 42.29001 28.56631 26234 ft 459 kts 142°
2026-05-05 16:15 42.23378 28.60696 26002 ft 476 kts 160°
2026-05-05 16:15 42.16754 28.61615 25983 ft 488 kts 186°
2026-05-05 16:16 42.10330 28.58738 25570 ft 487 kts 203°
2026-05-05 16:16 42.04158 28.55117 25094 ft 485 kts 203°
2026-05-05 16:17 41.97967 28.51565 24607 ft 483 kts 203°
2026-05-05 16:17 41.94877 28.49806 24377 ft 481 kts 202°
2026-05-05 16:18 41.88714 28.46313 23906 ft 480 kts 203°
2026-05-05 16:18 41.85638 28.44574 23682 ft 479 kts 203°
2026-05-05 16:18 41.79516 28.41120 23156 ft 476 kts 203°
2026-05-05 16:19 41.76459 28.39398 23052 ft 476 kts 203°
2026-05-05 16:19 41.73413 28.37684 23069 ft 476 kts 203°
2026-05-05 16:19 41.67310 28.34256 23077 ft 475 kts 203°
2026-05-05 16:20 41.61228 28.30846 22711 ft 473 kts 203°
2026-05-05 16:20 41.55161 28.27451 22201 ft 472 kts 203°
2026-05-05 16:21 41.49125 28.24084 21680 ft 469 kts 203°
2026-05-05 16:22 41.40157 28.19101 20118 ft 459 kts 203°
2026-05-05 16:22 41.34015 28.17057 19718 ft 452 kts 187°
2026-05-05 16:23 41.27880 28.17330 17409 ft 433 kts 171°
2026-05-05 16:23 41.24879 28.17596 16004 ft 434 kts 182°
2026-05-05 16:23 41.19296 28.15013 13261 ft 414 kts 218°
2026-05-05 16:24 41.17283 28.12457 11884 ft 390 kts 234°
2026-05-05 16:24 41.15655 28.09764 10899 ft 367 kts 236°
2026-05-05 16:24 41.12720 28.04891 10066 ft 313 kts 236°
2026-05-05 16:25 41.11347 28.02653 10003 ft 312 kts 236°
2026-05-05 16:25 41.08639 27.98240 9993 ft 307 kts 236°
2026-05-05 16:25 41.07131 27.96196 9991 ft 313 kts 223°
2026-05-05 16:26 41.02992 27.94669 9988 ft 320 kts 168°
2026-05-05 16:26 40.99722 27.98080 9846 ft 299 kts 107°
2026-05-05 16:27 40.99392 28.00684 9508 ft 281 kts 77°
2026-05-05 16:27 40.99793 28.03176 9176 ft 276 kts 69°
2026-05-05 16:27 41.00242 28.05646 8824 ft 276 kts 73°
2026-05-05 16:27 41.00224 28.08196 8504 ft 280 kts 91°
2026-05-05 16:28 41.00037 28.10765 8169 ft 278 kts 88°
2026-05-05 16:28 40.99882 28.13295 7842 ft 274 kts 89°
2026-05-05 16:28 40.99702 28.15802 7522 ft 273 kts 90°
2026-05-05 16:28 40.99569 28.17451 7306 ft 272 kts 90°
2026-05-05 16:29 40.99355 28.19911 6991 ft 267 kts 91°
2026-05-05 16:29 40.99133 28.22342 6674 ft 264 kts 91°
2026-05-05 16:29 40.98911 28.24677 6355 ft 251 kts 91°
2026-05-05 16:29 40.98693 28.26970 6038 ft 251 kts 91°
2026-05-05 16:30 40.98477 28.29243 5796 ft 246 kts 91°
2026-05-05 16:30 40.98261 28.31487 5670 ft 245 kts 91°
2026-05-05 16:30 40.98047 28.33715 5529 ft 244 kts 91°
2026-05-05 16:30 40.97832 28.35937 5417 ft 243 kts 91°
2026-05-05 16:31 40.97571 28.38144 5273 ft 245 kts 98°
2026-05-05 16:31 40.96924 28.40259 5145 ft 250 kts 113°
2026-05-05 16:31 40.96073 28.42261 5021 ft 250 kts 115°
2026-05-05 16:31 40.95194 28.44251 4990 ft 250 kts 115°
2026-05-05 16:32 40.94334 28.46211 4991 ft 250 kts 115°
2026-05-05 16:32 40.93468 28.48197 4989 ft 249 kts 115°
2026-05-05 16:32 40.92606 28.50184 4995 ft 249 kts 115°
2026-05-05 16:32 40.91744 28.52172 4990 ft 249 kts 115°
2026-05-05 16:33 40.90883 28.54161 4991 ft 249 kts 115°
2026-05-05 16:33 40.90026 28.56145 4991 ft 248 kts 115°
2026-05-05 16:33 40.89395 28.58229 4992 ft 242 kts 95°
2026-05-05 16:33 40.89497 28.60373 5002 ft 230 kts 69°
2026-05-05 16:34 40.89987 28.62377 4995 ft 229 kts 64°
2026-05-05 16:34 40.90527 28.64361 4995 ft 229 kts 64°
2026-05-05 16:34 40.91061 28.66344 4989 ft 229 kts 65°
2026-05-05 16:34 40.91678 28.68267 4995 ft 226 kts 54°
2026-05-05 16:35 40.92691 28.69709 4991 ft 204 kts 30°
2026-05-05 16:35 40.93857 28.70642 4997 ft 189 kts 25°
2026-05-05 16:35 40.95002 28.71463 4995 ft 190 kts 25°
2026-05-05 16:35 40.96140 28.72278 4997 ft 180 kts 25°
2026-05-05 16:36 40.97214 28.72994 4991 ft 166 kts 18°
2026-05-05 16:36 40.98272 28.73301 5032 ft 145 kts
2026-05-05 16:36 40.99250 28.73316 5022 ft 139 kts 358°
2026-05-05 16:36 41.00217 28.73293 4998 ft 139 kts 358°
2026-05-05 16:37 41.01176 28.73270 4999 ft 133 kts 358°
2026-05-05 16:37 41.02068 28.73248 4999 ft 126 kts 358°
2026-05-05 16:37 41.02938 28.73227 4987 ft 125 kts 358°
2026-05-05 16:37 41.03806 28.73209 4863 ft 123 kts 358°
2026-05-05 16:38 41.04647 28.73194 4683 ft 118 kts 358°
2026-05-05 16:38 41.05447 28.73178 4499 ft 114 kts 358°
2026-05-05 16:38 41.06242 28.73162 4333 ft 114 kts 359°
2026-05-05 16:38 41.07026 28.73147 4169 ft 114 kts 359°
2026-05-05 16:39 41.07824 28.73132 4005 ft 114 kts 359°
2026-05-05 16:39 41.08619 28.73117 3848 ft 114 kts 359°
2026-05-05 16:39 41.09409 28.73101 3688 ft 114 kts 359°
2026-05-05 16:39 41.10200 28.73086 3539 ft 113 kts 359°
2026-05-05 16:40 41.10988 28.73071 3397 ft 114 kts 358°
2026-05-05 16:40 41.11779 28.73055 3230 ft 114 kts 359°
2026-05-05 16:40 41.12573 28.73040 3076 ft 114 kts 358°
2026-05-05 16:40 41.13366 28.73025 2922 ft 114 kts 358°
2026-05-05 16:41 41.14159 28.73009 2776 ft 114 kts 360°
2026-05-05 16:41 41.14944 28.72994 2621 ft 114 kts 360°
2026-05-05 16:41 41.15740 28.72980 2451 ft 114 kts 359°
2026-05-05 16:41 41.16528 28.72962 2294 ft 113 kts 360°
2026-05-05 16:42 41.17315 28.72947 2139 ft 113 kts 360°
2026-05-05 16:42 41.18097 28.72934 1991 ft 112 kts 359°
2026-05-05 16:42 41.18878 28.72917 1839 ft 112 kts
2026-05-05 16:42 41.19654 28.72903 1687 ft 112 kts
2026-05-05 16:43 41.20427 28.72889 1529 ft 112 kts 359°
2026-05-05 16:43 41.21220 28.72873 1372 ft 113 kts 359°
2026-05-05 16:43 41.22007 28.72856 1170 ft 114 kts 360°
2026-05-05 16:43 41.22798 28.72834 1029 ft 116 kts 359°
2026-05-05 16:44 41.23598 28.72838 883 ft 115 kts
2026-05-05 16:44 41.24403 28.72834 735 ft 116 kts 359°
2026-05-05 16:44 41.25217 28.72795 591 ft 118 kts 359°
2026-05-05 16:44 41.26026 28.72774 418 ft 117 kts 360°
2026-05-05 16:45 41.26830 28.72764 325 ft 110 kts 359°
2026-05-05 16:45 41.27379 28.72753 322 ft 39 kts 359°
2026-05-05 16:45 41.27553 28.72748 322 ft 25 kts 359°
2026-05-05 16:45 41.27747 28.72746 320 ft 30 kts
2026-05-05 16:46 41.27965 28.72777 316 ft 30 kts 17°
2026-05-05 16:46 41.28069 28.72840 308 ft 0 kts 27°
2026-05-05 16:46 41.28070 28.72841 308 ft 3 kts 27°
2026-05-05 16:46 41.28126 28.72904 299 ft 14 kts 60°
2026-05-05 16:47 41.28127 28.72944 295 ft 4 kts 131°
2026-05-05 16:47 41.28072 28.72963 297 ft 12 kts 184°
2026-05-05 16:47 41.27969 28.72967 299 ft 17 kts 178°
2026-05-05 16:47 41.27831 28.72970 303 ft 22 kts 179°
2026-05-05 16:48 41.27690 28.72973 306 ft 13 kts 179°
2026-05-05 16:48 41.27599 28.72974 310 ft 15 kts 179°
2026-05-05 16:48 41.27486 28.72975 310 ft 18 kts 180°
2026-05-05 16:48 41.27360 28.72980 314 ft 17 kts 178°
2026-05-05 16:49 41.27306 28.72981 316 ft 6 kts 179°
2026-05-05 16:49 41.27244 28.72983 316 ft 11 kts 179°
2026-05-05 16:49 41.27150 28.72985 316 ft 16 kts 179°
2026-05-05 16:49 41.27061 28.72986 317 ft 10 kts 180°
2026-05-05 16:50 41.26998 28.72990 317 ft 8 kts 166°
2026-05-05 16:50 41.26974 28.73008 316 ft 0 kts 141°
2026-05-05 16:50 41.26966 28.73019 316 ft 5 kts 136°
2026-05-05 16:50 41.26954 28.73092 315 ft 12 kts 95°
2026-05-05 16:51 41.26952 28.73213 317 ft 15 kts 89°
2026-05-05 16:51 41.26956 28.73369 319 ft 19 kts 88°
2026-05-05 16:51 41.26959 28.73570 319 ft 24 kts 90°
2026-05-05 16:51 41.26960 28.73710 319 ft 7 kts 89°
2026-05-05 16:52 41.26960 28.73793 319 ft 10 kts 91°
2026-05-05 16:52 41.26935 28.73855 319 ft 5 kts 157°
2026-05-05 16:52 41.26888 28.73868 320 ft 9 kts 174°
2026-05-05 16:52 41.26802 28.73872 320 ft 16 kts 178°
2026-05-05 16:53 41.26697 28.73872 320 ft 11 kts 184°
2026-05-05 16:53 41.26659 28.73845 320 ft 0 kts 240°
2026-05-05 16:53 41.26657 28.73835 320 ft 2 kts 253°
2026-05-05 16:53 41.26651 28.73802 320 ft 6 kts 259°
2026-05-05 16:54 41.26651 28.73775 320 ft 0 kts 270°
2026-05-05 16:54 41.26650 28.73767 320 ft 2 kts 269°
2026-05-05 16:54 41.26650 28.73761 320 ft 0 kts 269°